Location: Asheville, NC
(35.6000°N, 82.5500°W)
Time: 23:14:49

NO-84 - Pass Details

Date: 17 March 2018
Orbit: 339 x 558 km, 55.0° (Epoch: 15 March)

Event Time Altitude Azimuth Distance (km) Brightness Sun altitude
Exits shadow 05:53:25 63° 139° (SE) 515 ? -21.9°
Drops below altitude 10° 05:56:22 10° 138° (SE) 1,544 ? -21.3°
Sets 05:58:22 0° 138° (SE) 2,367 ? -20.9°
